"Pseudo-MPEC" for 2016-038C = NORAD 41590 = Falcon 9-026 Stage 2

Created 2020 Feb 5 2:00:33 UT using Find_Orb

Click here for an explanation of pseudo-MPECs

 
 Astrometry: 
     ZTF09iT* C2020 01 02.25804407 49 25.30 +16 27 59.9    ~12FM 10.89RUNEOCPI41
     ZTF09iT  C2020 01 02.25839107 49 29.66 +16 28 30.3    ~12FM 10.89RUNEOCPI41
     ZTF09iT  C2020 01 02.26267407 50 33.84 +16 35 48.4    ~12FM 10.82RUNEOCPI41
     ZTF09iT  C2020 01 02.26302107 50 38.59 +16 36 21.0    ~12FM 10.82RUNEOCPI41
     ZTF09iT  C2020 01 02.27059007 52 31.64 +16 49 18.8    ~12FM 11.01RUNEOCPI41
     ZTF09iT  C2020 01 02.27093807 52 36.87 +16 49 54.4    ~12FM 11.01RUNEOCPI41
     ZTF09iT  C2020 01 02.28685207 56 38.05 +17 16 40.8    ~12FM 10.90RUNEOCPI41
     ZTF09iT  C2020 01 02.28719907 56 43.37 +17 17 16.4    ~12FM 10.90RUNEOCPI41
     ZTF09iT  C2020 01 02.30288208 00 47.30 +17 43 20.9    ~12FM 10.88RUNEOCPI41
     ZTF09iT  C2020 01 02.30322908 00 52.82 +17 43 55.6    ~12FM 10.88RUNEOCPI41
     ZTF09iT  C2020 01 02.31685208 04 31.35 +18 06 17.7    ~12FM 10.73RUNEOCPI41
     ZTF09iT  C2020 01 02.31719908 04 36.86 +18 06 52.3    ~12FM 10.73RUNEOCPI41
     ZTF09iT  C2020 01 02.32476808 06 41.66 +18 19 13.6    ~12FM 10.67RUNEOCPI41
     ZTF09iT  C2020 01 02.32511608 06 47.29 +18 19 47.2    ~12FM 10.67RUNEOCPI41
     ZTF09iT  C2020 01 02.33464108 09 28.55 +18 35 13.5    ~12FM 10.62RUNEOCPI41
     ZTF09iT  C2020 01 02.33498808 09 34.34 +18 35 46.2    ~12FM 10.62RUNEOCPI41
     ZTF09iT  C2020 01 02.33906308 10 44.92 +18 42 21.9    ~12FM 10.79RUNEOCPI41
     ZTF09iT  C2020 01 02.33941008 10 50.94 +18 42 55.7    ~12FM 10.79RUNEOCPI41
     ZTF09iT  C2020 01 02.34101808 11 19.07 +18 45 31.3    ~12FM 10.68RUNEOCPI41
     ZTF09iT  C2020 01 02.34136608 11 25.14 +18 46 04.9    ~12FM 10.68RUNEOCPI41
     ZTF09iT  C2020 01 02.37297508 21 15.57 +19 36 13.8    ~12FM 10.54RUNEOCPI41
     ZTF09iT  C2020 01 02.37332208 21 22.47 +19 36 46.7    ~12FM 10.54RUNEOCPI41
     ZTF09iT  C2020 01 02.39179408 27 49.59 +20 05 33.6    ~12FM 10.42RUNEOCPI41
     ZTF09iT  C2020 01 02.39214108 27 57.24 +20 06 05.7    ~12FM 10.42RUNEOCPI41
     ZTF0D3h* C2020 02 04.23237308 09 00.98 +20 04 01.6    ~2517 10.74RUNEOCPI41
     ZTF0D3h  C2020 02 04.23272008 09 05.99 +20 04 29.7    ~2517 10.74RUNEOCPI41
     ZTF0D3h  C2020 02 04.25002308 13 29.03 +20 27 40.1    ~2517 10.79RUNEOCPI41
     ZTF0D3h  C2020 02 04.25037008 13 34.44 +20 28 07.9    ~2517 10.79RUNEOCPI41

Station data:
(I41) Palomar Mountain--ZTF  (N33.357340 W116.859780)  US/California. 1.2-m
   f/2.44 Oschin Schmidt + CCD.

Orbital elements:  2016-038C
   Perigee 2020 Feb 3.700951 +/- 5.5e-5 TT = 16:49:22 (JD 2458883.200951)
Epoch 2020 Feb  4.0 TT = JDT 2458883.5                        Find_Orb
M 127.417063944 +/- 0.023           (J2000 equator)
n 426.073547231 +/- 0.000224        Peri.  230.544427 +/- 0.0047
a 37752.62245 +/- 0.0133            Node    64.090957 +/- 0.00041
e   0.81926850 +/- 2.06e-5          Incl.   25.266150 +/- 0.0020
P1216.67m/0.845d           H 27.4   G  0.15   U  7.1  
q 6823.087801 +/- 0.778    Q 68682.15711 +/- 0.796
From 28 observations 2020 Jan. 2-Feb. 4; mean residual 2".090
Residuals in arcseconds: 
200102 I41 8.19+ 4.47+    200102 I41 1.15+ 1.59-    200102 I41 2.69+ 1.53-    
200102 I41 3.11- .752-    200102 I41 .977- 1.06-    200102 I41 2.18+ 1.27-    
200102 I41 4.84+ 1.56-    200102 I41 .332- .676-    200102 I41 1.66- 2.39+    
200102 I41 1.12- 4.46-    200102 I41 2.73- 1.04-    200102 I41 1.66- 2.39+    
200102 I41 1.62- 1.50+    200102 I41 .119+ .985-    200204 I41 .774+ 2.32+    
200102 I41 1.49- 1.72+    200102 I41 2.26- 1.90-    200204 I41 1.74- 1.89+    
200102 I41 1.49- .348+    200102 I41 .686- .367-    200204 I41 .616+ 2.11-    
200102 I41 1.49- 1.11+    200102 I41 1.04- .076-    200204 I41 1.25+ 1.71-    
200102 I41 .033- .446+    200102 I41 .692- .358+    
200102 I41 .561+ .723+    200102 I41 1.16- .402+    

Ephemerides (geocentric):
Date (UTC) HH   RA              Dec         delta   r     elong  mag " sig PA
---- --------  --------------  -----------  -----  ------ -----  --- --------
2020 02 04 00  06 49 32.414   +16 18 20.72   64733 .98597 147.0 12.0 .959  48
2020 02 04 01  07 02 43.485   +17 23 53.14   66980 .98601 150.2 11.9 1.76  64
2020 02 04 02  07 15 22.061   +18 22 59.93   68286 .98603 153.2 11.9 2.16  71
2020 02 04 03  07 27 50.020   +19 17 36.20   68684 .98605 156.1 11.8 2.18  76
2020 02 04 04  07 40 27.218   +20 09 04.65   68183 .98606 158.9 11.7 1.86  82
2020 02 04 05  07 53 34.452   +20 58 27.96   66771 .98606 161.8 11.6 1.17  95
2020 02 04 06  08 07 36.693   +21 46 35.18   64413 .98606 164.7 11.4 .559   0
2020 02 04 07  08 23 07.883   +22 34 03.25   61047 .98605 167.7 11.2 2.18  59
2020 02 04 08  08 40 59.769   +23 21 11.25   56572 .98603 170.5 10.9 5.18  70
2020 02 04 09  09 02 41.202   +24 07 34.23   50830 .98600 172.2 10.6 10.2  76
2020 02 04 10  09 31 08.413   +24 50 21.27   43561 .98596 170.1 10.4 19.6  81
2020 02 04 11  10 13 32.350   +25 16 06.42   34311 .98590 162.5 10.1 40.9  87
2020 02 04 12  11 35 30.318   +23 57 01.28   22176 .98580 145.0  9.7  118  97
2020 02 04 13  17 50 40.302   -10 42 07.25    7113 .98566  48.5 11?? 1263 113
2020 02 04 14  03 31 56.649   -05 07 59.22   19806 .98570  93.9 11.0  146  66
2020 02 04 15  04 51 28.134   +04 10 56.43   32559 .98580 115.6 11.4 43.3  67
2020 02 04 16  05 29 43.793   +08 30 31.60   42201 .98587 125.8 11.6 19.1  70
2020 02 04 17  05 55 19.130   +11 13 51.13   49756 .98594 132.5 11.8 9.24  74
2020 02 04 18  06 15 02.771   +13 12 20.34   55727 .98600 137.6 11.9 4.20  79
2020 02 04 19  06 31 32.918   +14 45 45.98   60397 .98604 141.8 12.0 1.36  95
2020 02 04 20  06 46 07.768   +16 03 37.89   63936 .98608 145.4 12.0 .662  32
2020 02 04 21  06 59 32.847   +17 11 11.05   66454 .98612 148.6 12.0 1.56  62
2020 02 04 22  07 12 18.498   +18 11 37.96   68018 .98614 151.6 11.9 2.07  70
2020 02 04 23  07 24 47.773   +19 07 05.86   68667 .98617 154.5 11.9 2.19  75
2020 02 05 00  07 37 20.777   +19 59 04.59   68417 .98618 157.4 11.8 1.97  80
2020 02 05 01  07 50 17.751   +20 48 41.17   67262 .98619 160.2 11.7 1.38  90
2020 02 05 02  08 04 02.114   +21 36 47.54   65173 .98619 163.1 11.5 .571 140
2020 02 05 03  08 19 04.651   +22 24 03.42   62097 .98618 166.1 11.3 1.60  53
2020 02 05 04  08 36 10.828   +23 10 53.07   57944 .98616 169.1 11.0 4.22  68
2020 02 05 05  08 56 36.041   +23 57 06.92   52576 .98614 171.4 10.7 8.56  74
2020 02 05 06  09 22 43.290   +24 40 51.76   45767 .98610 171.1 10.4 16.3  80
2020 02 05 07  09 59 58.942   +25 13 22.70   37134 .98604 165.7 10.2 32.8  85
2020 02 05 08  11 05 19.870   +24 45 38.09   25941 .98596 152.3  9.8 82.8  94
2020 02 05 09  14 28 39.694   +12 00 53.91   10852 .98583 103.7  9.4  538 112
2020 02 05 10  02 43 49.647   -10 23 58.43   15461 .98580  80.2 11.1  252  67
2020 02 05 11  04 36 32.135   +02 29 57.09   29380 .98590 110.7 11.3 57.1  67
2020 02 05 12  05 21 14.214   +07 37 44.35   39753 .98598 122.8 11.6 23.7  69
2020 02 05 13  05 49 20.893   +10 39 57.71   47825 .98605 130.2 11.8 11.4  72
2020 02 05 14  06 10 21.548   +12 47 59.05   54204 .98610 135.6 11.9 5.35  77
2020 02 05 15  06 27 36.136   +14 26 55.48   59216 .98615 139.9 12.0 2.02  87
2020 02 05 16  06 42 38.071   +15 48 14.43   63058 .98620 143.7 12.0 .463 172
2020 02 05 17  06 56 19.545   +16 58 02.99   65853 .98623 147.0 12.0 1.33  59
2020 02 05 18  07 09 14.095   +17 59 59.82   67678 .98626 150.1 12.0 1.95  68
2020 02 05 19  07 21 46.279   +18 56 26.43   68581 .98629 153.0 11.9 2.18  73
2020 02 05 20  07 34 16.686   +19 49 00.90   68581 .98630 155.8 11.8 2.05  79
2020 02 05 21  07 47 05.230   +20 38 55.23   67681 .98631 158.7 11.7 1.57  87
2020 02 05 22  08 00 34.092   +21 27 04.56   65857 .98631 161.6 11.6 .760 115
2020 02 05 23  08 15 11.445   +22 14 11.34   63065 .98631 164.5 11.4 1.12  43
2020 02 06 00  08 31 37.583   +23 00 44.00   59225 .98630 167.5 11.1 3.38  65
2020 02 06 01  08 50 57.128   +23 46 44.26   54215 .98627 170.2 10.8 7.15  73